[ hide orbit diagram ]
For accurate long-term ephemerides, please instead use our Horizons system.This orbit viewer was implemented using two-body methods, and hence should not be used for determining accurate long-term trajectories (over several years or decades) or planetary encounter circumstances.
Orbital Elements at Epoch 2459200.5 (2020-Dec-17.0) TDB
Reference: JPL 24 (heliocentric ecliptic J2000)
Element | Value | Uncertainty (1-sigma) | Units |
e | .1816682444268212 | 4.3394e-08 | |
a | 2.428021953856307 | 8.3672e-09 | au |
q | 1.986927468069451 | 1.0838e-07 | au |
i | 1.958004748492415 | 4.7767e-06 | deg |
node | 346.506847890267 | 9.1239e-05 | deg |
peri | 318.5213233539615 | 9.1806e-05 | deg |
M | 323.7235634881098 | 9.879e-06 | deg |
tp | 2459339.751364382823 (2021-May-05.25136438) | 3.8016e-05 | TDB |
period | 1381.902303479702 3.78 | 7.1432e-06 1.956e-08 | d yr |
n | .2605104565594118 | 1.3466e-09 | deg/d |
Q | 2.869116439643162 | 9.8872e-09 | au |
|
| | Orbit Determination Parameters
Additional Information
|
[ show covariance matrix ]
Physical Parameter Table
Parameter |
Symbol |
Value |
Units |
Sigma |
Reference |
Notes |
absolute magnitude |
H |
14.43 |
|
n/a |
E2021B10 |
|
rotation period |
rot_per |
2.910 |
h |
n/a |
LCDB (Rev. 2020-October); Warner et al., 2009 |
Result based on less than full coverage, so that the period may be wrong by 30 percent or so. Published Reference List: [Waszczak, A.; Chang, C.-K.; Ofeck, E.O.; Laher, F.; et al. (2015) Astron. J. 150, A75.] |
|
24318 Vivianlee | Discovered 2000 Jan. 3 by the Lincoln Laboratory Near-Earth Asteroid Research Team at Socorro. |
Vivian Alice Lee (b. 1990) was awarded second place in the 2008 Intel International Science and Engineering Fair for her behavioral and social sciences project. She attends the Vista Ridge High School, Cedar Park, Texas, U.S.A. |
NOTE: some special characters may not display properly (any characters within {} are an attempt to place the proper accent above a character) |
Reference: 20080917/MPCPages.arc | Last Updated: 2008-09-19 |
|
[ show close-approach data ]
Alternate Designations
2000 AE14 = 1997 CM12 = 1998 MH29 |
|
|